Regional Weather Roundup
Issued by NWS

Home | Current Version | Previous Version | Text Only | Print | Product List | Glossary On
Versions: 1 2 3 4 5 6 7 8 9 10 11 12 13 14 15 16 17 18 19 20 21 22 23 24 25 26 27
000
ASUS45 KBOI 292210
RWRID

IDAHO REGIONAL WEATHER ROUNDUP
NATIONAL WEATHER SERVICE BOISE ID
400 PM MDT THU SEP 29 2016

NOTE: "FAIR" INDICATES FEW OR NO CLOUDS BELOW 12000 FEET
WITH NO SIGNIFICANT WEATHER AND/OR OBSTRUCTIONS TO VISIBILITY

IDZ012-014-292300-
SOUTHWEST IDAHO


CITY           SKY/WX    TMP DP  RH WIND       PRES   REMARKS
BOISE          MOSUNNY   88  35  15 W6        29.97F
CALDWELL       MOSUNNY   88  38  17 SE3       29.95F
MOUNTAIN HOME  MOSUNNY   88  37  16 N2        29.97F
$$

IDZ016-017-292300-
SOUTHCENTRAL IDAHO


CITY           SKY/WX    TMP DP  RH WIND       PRES   REMARKS
BURLEY         SUNNY     77  44  30 S6        30.09F
JEROME         MOSUNNY   81  42  25 S3        30.08F
TWIN FALLS     MOSUNNY   79  41  25 S9        30.09F
$$

IDZ019>023-292300-
SOUTHEAST IDAHO


CITY           SKY/WX    TMP DP  RH WIND       PRES   REMARKS
IDAHO FALLS    CLOUDY    72  46  39 SW13      30.18S
POCATELLO      PTSUNNY   73  46  38 S21       30.15
REXBURG        LGT RAIN  70  48  45 SE13G20   30.19S
$$

IDZ006-010-011-018-031-032-292300-
CENTRAL IDAHO MOUNTAINS


CITY           SKY/WX    TMP DP  RH WIND       PRES   REMARKS
MCCALL         SUNNY     77  36  22 SW8       30.09F
HAILEY         MOSUNNY   73  46  38 SE9       30.18F
STANLEY          N/A     73  34  23 W8        30.18F
SALMON         SUNNY     81  45  28 SW9       30.01F
CHALLIS        PTSUNNY   73  40  30 S7        30.11S THUNDER
$$

IDZ002-004-006-007-026-292300-
NORTHERN IDAHO


CITY           SKY/WX    TMP DP  RH WIND       PRES   REMARKS
LEWISTON       SUNNY     82  45  27 CALM      29.90F
LOWELL           N/A     78  54  43 N3        29.89F
COEUR D`ALENE  SUNNY     77  50  38 CALM      29.95F
MULLAN PASS    SUNNY     69  38  32 VRB5      30.13S
$$




USA.gov is the U.S. government's official web portal to all federal, state and local government web resources and services.